Time,TemperatureF,DewpointF,PressureIn,WindDirection,WindDirectionDegrees,WindSpeedMPH,WindSpeedGustMPH,Humidity,HourlyPrecipIn,Conditions,Clouds,dailyrainin,SoftwareType,DateUTC
2013-01-26 00:03:00,23.9,17.1,30.11,WSW,253,2.0,3.0,75,0.00,CLR,CLR,0.00,WeatherDisplay:10.37,2013-01-26 05:03:00,
2013-01-26 00:10:00,59.5,23.6,29.96,NNE,15,2.0,2.0,25,0.00,CL,CL,0.00,WeatherDisplay:10.37,2013-01-26 05:10:00,
2013-01-26 00:18:00,24.1,17.0,30.11,WSW,248,2.0,3.0,74,0.00,CLR,CLR,0.00,WeatherDisplay:10.37,2013-01-26 05:18:00,
2013-01-26 00:33:00,23.9,16.8,30.14,West,260,1.0,3.0,74,0.00,CLR,CLR,0.00,WeatherDisplay:10.37,2013-01-26 05:33:00,
2013-01-26 00:48:00,23.9,16.8,30.11,West,262,1.0,3.0,74,0.00,CLR,CLR,0.00,WeatherDisplay:10.37,2013-01-26 05:48:00,
2013-01-26 01:03:00,23.5,15.5,30.11,WSW,248,1.0,2.0,71,0.00,CLR,CLR,0.00,WeatherDisplay:10.37,2013-01-26 06:03:00,
2013-01-26 01:10:00,53.1,21.6,29.99,North,0,2.0,3.0,29,0.00,CL,CL,0.00,WeatherDisplay:10.37,2013-01-26 06:10:00,
2013-01-26 01:18:00,23.7,16.6,30.11,WSW,248,2.0,2.0,74,0.00,CLR,CLR,0.00,WeatherDisplay:10.37,2013-01-26 06:18:00,
2013-01-26 01:33:00,23.5,15.5,30.14,WSW,248,1.0,2.0,71,0.00,CLR,CLR,0.00,WeatherDisplay:10.37,2013-01-26 06:33:00,
2013-01-26 01:48:00,22.8,11.7,30.14,WSW,248,0.0,2.0,62,0.00,CLR,CLR,0.00,WeatherDisplay:10.37,2013-01-26 06:48:00,
2013-01-26 02:03:00,21.9,8.2,30.14,WSW,248,0.0,0.0,55,0.00,CLR,CLR,0.00,WeatherDisplay:10.37,2013-01-26 07:03:00,
2013-01-26 02:10:00,52.5,24.9,29.99,NNE,13,2.0,2.0,34,0.00,CL,CL,0.00,WeatherDisplay:10.37,2013-01-26 07:10:00,
2013-01-26 02:18:00,21.4,8.1,30.11,WSW,248,0.0,0.0,56,0.00,CLR,CLR,0.00,WeatherDisplay:10.37,2013-01-26 07:18:00,
2013-01-26 02:33:00,21.2,8.3,30.14,WSW,248,0.0,0.0,57,0.00,CLR,CLR,0.00,WeatherDisplay:10.37,2013-01-26 07:33:00,
2013-01-26 02:48:00,21.0,8.2,30.17,WSW,248,0.0,0.0,57,0.00,CLR,CLR,0.00,WeatherDisplay:10.37,2013-01-26 07:48:00,
2013-01-26 03:03:00,20.8,7.2,30.17,WSW,248,0.0,0.0,55,0.00,CLR,CLR,0.00,WeatherDisplay:10.37,2013-01-26 08:03:00,
2013-01-26 03:10:00,52.7,21.3,30.02,North,1,5.0,5.0,29,0.00,CL,CL,0.00,WeatherDisplay:10.37,2013-01-26 08:10:00,
2013-01-26 03:18:00,20.7,7.0,30.20,WSW,248,0.0,0.0,55,0.00,CLR,CLR,0.00,WeatherDisplay:10.37,2013-01-26 08:18:00,
2013-01-26 03:33:00,20.8,6.8,30.20,NW,315,0.0,1.0,54,0.00,CLR,CLR,0.00,WeatherDisplay:10.37,2013-01-26 08:33:00,
2013-01-26 04:10:00,53.1,44.6,30.05,North,1,2.0,2.0,73,0.00,CL,CL,0.00,WeatherDisplay:10.37,2013-01-26 09:10:00,
2013-01-26 05:10:00,52.7,43.9,30.05,NNE,15,2.0,5.0,72,0.00,CL,CL,0.00,WeatherDisplay:10.37,2013-01-26 10:10:00,
2013-01-26 06:10:00,52.7,42.8,30.08,North,1,3.0,3.0,69,0.00,CL,CL,0.00,WeatherDisplay:10.37,2013-01-26 11:10:00,
2013-01-26 07:10:00,49.3,44.6,30.08,NNE,15,5.0,7.0,84,0.00,CL,CL,0.00,WeatherDisplay:10.37,2013-01-26 12:10:00,
2013-01-26 08:02:00,48.0,44.9,30.08,North,2,2.0,2.0,89,0.00,CL,CL,0.00,WeatherDisplay:10.37,2013-01-26 13:02:00,
2013-01-26 08:10:00,47.8,44.2,30.11,North,2,1.0,1.0,87,0.00,CL,CL,0.00,WeatherDisplay:10.37,2013-01-26 13:10:00,
2013-01-26 08:39:00,21.0,16.1,30.20,NW,315,3.8,0.0,81,0.00,CLR,,0.00,WeatherDisplay:10.37,2013-01-26 13:39:00,
2013-01-26 08:40:00,21.0,16.1,30.20,NW,315,1.2,0.0,81,0.00,CLR,,0.00,WeatherDisplay:10.37,2013-01-26 13:40:00,
2013-01-26 08:41:00,21.2,18.5,30.20,NW,315,1.2,0.0,89,0.00,CLR,,0.00,WeatherDisplay:10.37,2013-01-26 13:41:00,
2013-01-26 08:46:00,21.2,18.5,30.20,NW,315,0.0,0.0,89,0.00,CLR,,0.00,WeatherDisplay:10.37,2013-01-26 13:46:00,
2013-01-26 08:50:00,21.4,18.6,30.20,NW,315,0.0,0.0,89,0.00,CLR,,0.00,WeatherDisplay:10.37,2013-01-26 13:50:00,
2013-01-26 08:55:00,21.4,18.6,30.20,NW,315,0.0,0.0,89,0.00,CLR,,0.00,WeatherDisplay:10.37,2013-01-26 13:55:00,
2013-01-26 09:00:00,21.6,18.8,30.20,NW,315,0.0,0.0,89,0.00,CLR,,0.00,WeatherDisplay:10.37,2013-01-26 14:00:00,
2013-01-26 09:05:00,21.7,21.5,30.17,NW,315,0.0,0.0,99,0.00,CLR,,0.00,WeatherDisplay:10.37,2013-01-26 14:05:00,
2013-01-26 09:08:00,47.1,27.9,30.08,North,2,2.0,2.0,47,0.04,CL,CL,0.00,WeatherDisplay:10.37,2013-01-26 14:08:00,
2013-01-26 09:10:00,21.9,21.9,30.17,NW,315,0.0,0.0,100,0.00,CLR,,0.00,WeatherDisplay:10.37,2013-01-26 14:10:00,
2013-01-26 09:15:00,22.5,22.5,30.17,NE,45,0.0,0.0,100,0.00,CLR,,0.00,WeatherDisplay:10.37,2013-01-26 14:15:00,
2013-01-26 09:20:00,22.8,22.8,30.20,East,90,1.2,0.0,100,0.00,CLR,,0.00,WeatherDisplay:10.37,2013-01-26 14:20:00,
2013-01-26 09:25:00,23.4,22.1,30.20,South,180,1.4,1.4,95,0.00,CLR,,0.00,WeatherDisplay:10.37,2013-01-26 14:25:00,
2013-01-26 09:30:00,23.7,22.5,30.20,SE,135,1.4,1.4,95,0.00,CLR,,0.00,WeatherDisplay:10.37,2013-01-26 14:30:00,
2013-01-26 09:35:00,24.1,22.9,30.20,SSE,158,1.6,1.6,95,0.00,CLR,,0.00,WeatherDisplay:10.37,2013-01-26 14:35:00,
2013-01-26 09:40:00,24.4,23.0,30.20,SSE,158,1.2,0.0,94,0.00,CLR,,0.00,WeatherDisplay:10.37,2013-01-26 14:40:00,
2013-01-26 09:45:00,25.0,23.5,30.20,SE,135,1.2,0.0,94,0.00,CLR,,0.00,WeatherDisplay:10.37,2013-01-26 14:45:00,
2013-01-26 09:50:00,25.5,24.0,30.20,SE,135,1.2,1.2,94,0.00,CLR,,0.00,WeatherDisplay:10.37,2013-01-26 14:50:00,
2013-01-26 09:55:00,26.1,24.8,30.20,SE,135,2.3,2.3,95,0.00,CLR,,0.00,WeatherDisplay:10.37,2013-01-26 14:55:00,
2013-01-26 10:00:00,27.0,25.7,30.20,SSE,158,1.2,0.0,95,0.00,CLR,,0.00,WeatherDisplay:10.37,2013-01-26 15:00:00,
2013-01-26 10:05:00,27.7,26.4,30.20,SSW,202,1.2,0.0,95,0.00,CLR,,0.00,WeatherDisplay:10.37,2013-01-26 15:05:00,
2013-01-26 10:10:00,27.9,26.4,30.20,SSW,202,0.0,0.0,94,0.00,CLR,,0.00,WeatherDisplay:10.37,2013-01-26 15:10:00,
2013-01-26 10:15:00,28.8,26.7,30.20,SSW,202,0.0,0.0,92,0.00,CLR,,0.00,WeatherDisplay:10.37,2013-01-26 15:15:00,
2013-01-26 10:20:00,30.0,28.5,30.20,East,90,1.2,0.0,94,0.00,CLR,,0.00,WeatherDisplay:10.37,2013-01-26 15:20:00,
2013-01-26 10:25:00,30.7,29.0,30.20,NE,45,1.4,0.0,93,0.00,CLR,,0.00,WeatherDisplay:10.37,2013-01-26 15:25:00,
2013-01-26 10:30:00,31.3,28.4,30.20,NNE,22,2.3,0.0,89,0.00,CLR,,0.00,WeatherDisplay:10.37,2013-01-26 15:30:00,
2013-01-26 10:36:00,32.4,28.6,30.20,East,90,0.0,0.0,86,0.00,CLR,,0.00,WeatherDisplay:10.37,2013-01-26 15:36:00,
2013-01-26 10:41:00,32.7,27.5,30.20,NNE,22,2.3,2.3,81,0.00,CLR,,0.00,WeatherDisplay:10.37,2013-01-26 15:41:00,
2013-01-26 10:46:00,33.3,27.1,30.20,NE,45,1.2,1.2,78,0.00,CLR,,0.00,WeatherDisplay:10.37,2013-01-26 15:46:00,
2013-01-26 10:51:00,33.6,25.9,30.23,NE,45,2.9,2.9,73,0.00,CLR,,0.00,WeatherDisplay:10.37,2013-01-26 15:51:00,
2013-01-26 10:56:00,33.6,25.9,30.23,NE,45,2.3,2.3,73,0.00,CLR,,0.00,WeatherDisplay:10.37,2013-01-26 15:56:00,
2013-01-26 11:01:00,34.0,25.9,30.23,East,90,2.3,2.3,72,0.00,CLR,,0.00,WeatherDisplay:10.37,2013-01-26 16:01:00,
2013-01-26 11:06:00,34.2,25.0,30.23,NE,45,3.5,3.5,69,0.00,BKN,,0.00,WeatherDisplay:10.37,2013-01-26 16:06:00,
2013-01-26 11:10:00,46.9,29.2,30.05,NNE,15,3.0,5.0,50,0.00,CL,CL,0.00,WeatherDisplay:10.37,2013-01-26 16:10:00,
2013-01-26 11:11:00,34.3,25.2,30.23,NE,45,2.0,2.0,69,0.00,BKN,,0.00,WeatherDisplay:10.37,2013-01-26 16:11:00,
2013-01-26 11:16:00,35.1,25.9,30.23,NE,45,2.3,2.3,69,0.00,BKN,,0.00,WeatherDisplay:10.37,2013-01-26 16:16:00,
2013-01-26 11:21:00,35.1,25.2,30.23,West,270,1.6,0.0,67,0.00,BKN,,0.00,WeatherDisplay:10.37,2013-01-26 16:21:00,
2013-01-26 11:26:00,35.6,26.4,30.23,NNE,22,1.4,1.4,69,0.00,BKN,,0.00,WeatherDisplay:10.37,2013-01-26 16:26:00,
2013-01-26 11:31:00,36.3,26.0,30.23,NE,45,2.4,2.4,66,0.00,BKN,,0.00,WeatherDisplay:10.37,2013-01-26 16:31:00,
2013-01-26 11:36:00,36.7,26.4,30.23,ENE,68,2.3,2.3,66,0.00,BKN,,0.00,WeatherDisplay:10.37,2013-01-26 16:36:00,
2013-01-26 11:41:00,35.6,24.6,30.23,NE,45,2.3,2.3,64,0.00,BKN,,0.00,WeatherDisplay:10.37,2013-01-26 16:41:00,
2013-01-26 11:46:00,35.8,24.8,30.23,NE,45,1.6,1.6,64,0.00,BKN,,0.00,WeatherDisplay:10.37,2013-01-26 16:46:00,
2013-01-26 11:51:00,35.6,24.6,30.23,NE,45,2.0,0.0,64,0.00,BKN,,0.00,WeatherDisplay:10.37,2013-01-26 16:51:00,
2013-01-26 11:56:00,35.4,24.4,30.23,NNE,22,2.4,2.4,64,0.00,BKN,,0.00,WeatherDisplay:10.37,2013-01-26 16:56:00,
2013-01-26 12:01:00,35.6,24.6,30.23,NE,45,2.3,2.3,64,0.00,BKN,,0.00,WeatherDisplay:10.37,2013-01-26 17:01:00,
2013-01-26 12:06:00,36.3,25.3,30.23,NNE,22,2.6,2.6,64,0.00,BKN,,0.00,WeatherDisplay:10.37,2013-01-26 17:06:00,
2013-01-26 12:09:00,46.2,44.9,30.05,North,1,5.0,7.0,95,0.00,CL,CL,0.00,WeatherDisplay:10.37,2013-01-26 17:09:00,
2013-01-26 12:10:00,45.9,44.3,30.02,North,1,5.0,7.0,94,0.00,CL,CL,0.00,WeatherDisplay:10.37,2013-01-26 17:10:00,
2013-01-26 12:11:00,36.7,25.6,30.23,NNW,338,2.3,2.3,64,0.00,BKN,,0.00,WeatherDisplay:10.37,2013-01-26 17:11:00,
2013-01-26 12:16:00,36.3,25.3,30.23,ENE,68,2.2,2.2,64,0.00,BKN,,0.00,WeatherDisplay:10.37,2013-01-26 17:16:00,
2013-01-26 12:21:00,36.1,25.1,30.23,ENE,68,1.2,1.2,64,0.00,BKN,,0.00,WeatherDisplay:10.37,2013-01-26 17:21:00,
2013-01-26 12:26:00,35.8,24.8,30.23,ENE,68,1.6,1.6,64,0.00,BKN,,0.00,WeatherDisplay:10.37,2013-01-26 17:26:00,
2013-01-26 12:31:00,34.9,23.9,30.23,NNE,22,3.5,3.5,64,0.00,BKN,,0.00,WeatherDisplay:10.37,2013-01-26 17:31:00,
2013-01-26 12:36:00,34.9,23.9,30.20,NW,315,2.3,2.3,64,0.00,BKN,,0.00,WeatherDisplay:10.37,2013-01-26 17:36:00,
2013-01-26 12:41:00,34.9,23.9,30.20,North,0,1.2,0.0,64,0.00,BKN,,0.00,WeatherDisplay:10.37,2013-01-26 17:41:00,
2013-01-26 12:46:00,35.4,24.4,30.20,West,270,0.0,0.0,64,0.00,BKN,,0.00,WeatherDisplay:10.37,2013-01-26 17:46:00,
2013-01-26 12:51:00,37.0,26.0,30.23,SE,135,2.3,2.3,64,0.00,BKN,,0.00,WeatherDisplay:10.37,2013-01-26 17:51:00,
2013-01-26 12:56:00,37.0,26.0,30.23,SW,225,2.3,2.3,64,0.04,RA,,0.04,WeatherDisplay:10.37,2013-01-26 17:56:00,
2013-01-26 13:01:00,38.7,27.1,30.23,ENE,68,2.3,2.3,63,0.04,RA,,0.04,WeatherDisplay:10.37,2013-01-26 18:01:00,
2013-01-26 13:06:00,38.3,26.8,30.23,East,90,2.3,2.3,63,0.04,BKN,,0.04,WeatherDisplay:10.37,2013-01-26 18:06:00,
2013-01-26 13:10:00,45.4,44.6,30.05,North,2,5.0,7.0,97,0.00,CL,CL,0.00,WeatherDisplay:10.37,2013-01-26 18:10:00,
2013-01-26 13:11:00,37.2,26.2,30.23,ENE,68,2.3,2.3,64,0.04,BKN,,0.04,WeatherDisplay:10.37,2013-01-26 18:11:00,
2013-01-26 13:16:00,36.9,25.8,30.23,North,0,1.2,1.2,64,0.04,BKN,,0.04,WeatherDisplay:10.37,2013-01-26 18:16:00,
2013-01-26 13:21:00,36.5,25.5,30.20,NW,315,2.3,2.3,64,0.04,BKN,,0.04,WeatherDisplay:10.37,2013-01-26 18:21:00,
2013-01-26 13:26:00,35.8,24.8,30.20,WNW,292,2.3,2.3,64,0.04,BKN,,0.04,WeatherDisplay:10.37,2013-01-26 18:26:00,
2013-01-26 13:31:00,35.8,24.8,30.20,NNE,22,2.3,2.3,64,0.04,BKN,,0.04,WeatherDisplay:10.37,2013-01-26 18:31:00,
2013-01-26 13:36:00,35.6,24.6,30.20,West,270,3.1,3.1,64,0.04,BKN,,0.04,WeatherDisplay:10.37,2013-01-26 18:36:00,
2013-01-26 13:41:00,37.8,26.3,30.20,WSW,248,1.2,0.0,63,0.04,BKN,,0.04,WeatherDisplay:10.37,2013-01-26 18:41:00,
2013-01-26 13:46:00,37.6,26.1,30.20,North,0,2.3,0.0,63,0.04,BKN,,0.04,WeatherDisplay:10.37,2013-01-26 18:46:00,
2013-01-26 13:51:00,36.5,25.5,30.17,North,0,2.6,2.6,64,0.04,BKN,,0.04,WeatherDisplay:10.37,2013-01-26 18:51:00,
2013-01-26 13:56:00,38.3,26.8,30.17,North,0,1.2,1.4,63,0.00,BKN,,0.04,WeatherDisplay:10.37,2013-01-26 18:56:00,
2013-01-26 14:01:00,37.0,26.0,30.17,North,0,3.6,3.6,64,0.00,BKN,,0.04,WeatherDisplay:10.37,2013-01-26 19:01:00,
2013-01-26 14:06:00,39.2,27.7,30.17,North,0,2.3,2.3,63,0.00,SCT,,0.04,WeatherDisplay:10.37,2013-01-26 19:06:00,
2013-01-26 14:10:00,45.1,45.1,30.08,North,3,2.0,2.0,100,0.00,CL,CL,0.00,WeatherDisplay:10.37,2013-01-26 19:10:00,
2013-01-26 14:11:00,40.6,29.0,30.17,NNE,22,4.0,4.0,63,0.00,SCT,,0.04,WeatherDisplay:10.37,2013-01-26 19:11:00,
2013-01-26 14:16:00,41.2,29.5,30.17,West,270,2.3,2.3,63,0.00,SCT,,0.04,WeatherDisplay:10.37,2013-01-26 19:16:00,
2013-01-26 14:21:00,41.5,29.9,30.20,NE,45,2.3,0.0,63,0.00,SCT,,0.04,WeatherDisplay:10.37,2013-01-26 19:21:00,
2013-01-26 14:26:00,41.0,29.4,30.20,WSW,248,5.4,5.4,63,0.00,SCT,,0.04,WeatherDisplay:10.37,2013-01-26 19:26:00,
2013-01-26 14:31:00,40.6,29.0,30.20,West,270,5.6,5.6,63,0.00,SCT,,0.04,WeatherDisplay:10.37,2013-01-26 19:31:00,
2013-01-26 14:36:00,38.7,27.1,30.20,West,270,5.8,5.8,63,0.00,SCT,,0.04,WeatherDisplay:10.37,2013-01-26 19:36:00,
2013-01-26 14:41:00,38.8,27.3,30.20,NE,45,3.6,3.6,63,0.00,SCT,,0.04,WeatherDisplay:10.37,2013-01-26 19:41:00,
2013-01-26 14:46:00,38.8,27.3,30.20,NNE,22,4.6,4.6,63,0.00,SCT,,0.04,WeatherDisplay:10.37,2013-01-26 19:46:00,
2013-01-26 14:51:00,38.1,26.6,30.20,NE,45,4.6,4.6,63,0.00,SCT,,0.04,WeatherDisplay:10.37,2013-01-26 19:51:00,
2013-01-26 14:56:00,37.0,26.0,30.20,West,270,3.5,3.5,64,0.00,SCT,,0.04,WeatherDisplay:10.37,2013-01-26 19:56:00,
2013-01-26 15:01:00,37.8,26.3,30.20,North,0,2.3,2.3,63,0.00,SCT,,0.04,WeatherDisplay:10.37,2013-01-26 20:01:00,
2013-01-26 15:06:00,37.8,26.3,30.20,West,270,2.3,2.3,63,0.00,CLR,,0.04,WeatherDisplay:10.37,2013-01-26 20:06:00,
2013-01-26 15:10:00,44.4,44.4,30.08,NNE,14,3.0,3.0,100,0.00,CL,CL,0.00,WeatherDisplay:10.37,2013-01-26 20:10:00,
2013-01-26 15:11:00,38.8,27.3,30.20,West,270,2.4,2.4,63,0.00,CLR,,0.04,WeatherDisplay:10.37,2013-01-26 20:11:00,
2013-01-26 15:16:00,38.7,27.1,30.20,WSW,248,3.5,3.5,63,0.00,CLR,,0.04,WeatherDisplay:10.37,2013-01-26 20:16:00,
2013-01-26 15:21:00,38.8,27.3,30.20,West,270,3.5,3.5,63,0.00,CLR,,0.04,WeatherDisplay:10.37,2013-01-26 20:21:00,
2013-01-26 15:26:00,39.4,27.8,30.20,WSW,248,2.6,2.6,63,0.00,CLR,,0.04,WeatherDisplay:10.37,2013-01-26 20:26:00,
2013-01-26 15:31:00,37.9,26.5,30.20,WSW,248,4.6,4.6,63,0.00,CLR,,0.04,WeatherDisplay:10.37,2013-01-26 20:31:00,
2013-01-26 15:36:00,40.6,29.0,30.20,SW,225,3.3,0.0,63,0.00,CLR,,0.04,WeatherDisplay:10.37,2013-01-26 20:36:00,
2013-01-26 15:41:00,39.7,28.2,30.20,West,270,5.4,5.4,63,0.00,CLR,,0.04,WeatherDisplay:10.37,2013-01-26 20:41:00,
2013-01-26 15:46:00,40.6,29.0,30.20,NE,45,3.5,3.5,63,0.00,CLR,,0.04,WeatherDisplay:10.37,2013-01-26 20:46:00,
2013-01-26 15:51:00,41.9,30.2,30.20,West,270,2.0,0.0,63,0.00,CLR,,0.04,WeatherDisplay:10.37,2013-01-26 20:51:00,
2013-01-26 15:56:00,42.4,30.7,30.20,NE,45,3.5,3.5,63,0.00,CLR,,0.04,WeatherDisplay:10.37,2013-01-26 20:56:00,
2013-01-26 16:01:00,41.7,30.0,30.20,NE,45,1.2,1.2,63,0.00,CLR,,0.04,WeatherDisplay:10.37,2013-01-26 21:01:00,
2013-01-26 16:06:00,42.4,30.7,30.20,NE,45,1.2,1.2,63,0.00,CLR,,0.04,WeatherDisplay:10.37,2013-01-26 21:06:00,
2013-01-26 16:10:00,43.9,43.9,30.08,North,0,2.0,5.0,100,0.00,CL,CL,0.00,WeatherDisplay:10.37,2013-01-26 21:10:00,
2013-01-26 16:11:00,41.2,29.5,30.20,SW,225,2.3,2.3,63,0.00,CLR,,0.04,WeatherDisplay:10.37,2013-01-26 21:11:00,
2013-01-26 16:16:00,42.8,30.7,30.20,East,90,2.3,2.3,62,0.00,CLR,,0.04,WeatherDisplay:10.37,2013-01-26 21:16:00,
2013-01-26 16:21:00,42.3,30.6,30.20,South,180,2.3,2.3,63,0.00,CLR,,0.04,WeatherDisplay:10.37,2013-01-26 21:21:00,
2013-01-26 16:26:00,42.8,30.7,30.20,South,180,1.2,0.0,62,0.00,CLR,,0.04,WeatherDisplay:10.37,2013-01-26 21:26:00,
2013-01-26 16:31:00,43.3,31.2,30.20,North,0,1.2,1.2,62,0.00,CLR,,0.04,WeatherDisplay:10.37,2013-01-26 21:31:00,
2013-01-26 16:36:00,42.6,30.9,30.20,South,180,4.6,4.6,63,0.00,CLR,,0.04,WeatherDisplay:10.37,2013-01-26 21:36:00,
2013-01-26 16:41:00,42.1,30.4,30.20,South,180,3.5,3.5,63,0.00,CLR,,0.04,WeatherDisplay:10.37,2013-01-26 21:41:00,
2013-01-26 16:46:00,41.9,30.2,30.20,NE,45,2.3,2.3,63,0.00,CLR,,0.04,WeatherDisplay:10.37,2013-01-26 21:46:00,
2013-01-26 16:51:00,40.6,29.0,30.20,SW,225,2.3,2.3,63,0.00,CLR,,0.04,WeatherDisplay:10.37,2013-01-26 21:51:00,
2013-01-26 16:56:00,41.2,29.5,30.20,East,90,2.3,0.0,63,0.00,CLR,,0.04,WeatherDisplay:10.37,2013-01-26 21:56:00,
2013-01-26 17:01:00,41.0,29.4,30.20,East,90,1.2,0.0,63,0.00,CLR,,0.04,WeatherDisplay:10.37,2013-01-26 22:01:00,
2013-01-26 17:06:00,41.0,29.4,30.20,South,180,1.4,1.4,63,0.00,CLR,,0.04,WeatherDisplay:10.37,2013-01-26 22:06:00,
2013-01-26 17:10:00,43.7,43.7,30.08,North,2,3.0,3.0,100,0.00,CL,CL,0.00,WeatherDisplay:10.37,2013-01-26 22:10:00,
2013-01-26 17:11:00,39.0,27.5,30.20,SSW,202,2.3,2.3,63,0.00,CLR,,0.04,WeatherDisplay:10.37,2013-01-26 22:11:00,
2013-01-26 17:16:00,39.9,28.3,30.20,South,180,2.3,2.3,63,0.00,CLR,,0.04,WeatherDisplay:10.37,2013-01-26 22:16:00,
2013-01-26 17:21:00,39.6,28.0,30.20,South,180,2.3,2.3,63,0.00,CLR,,0.04,WeatherDisplay:10.37,2013-01-26 22:21:00,
2013-01-26 17:26:00,39.0,27.5,30.20,SW,225,3.5,3.5,63,0.00,CLR,,0.04,WeatherDisplay:10.37,2013-01-26 22:26:00,
2013-01-26 17:31:00,38.5,27.0,30.20,SSW,202,2.3,2.3,63,0.00,CLR,,0.04,WeatherDisplay:10.37,2013-01-26 22:31:00,
2013-01-26 17:36:00,37.6,26.1,30.20,SW,225,3.5,3.5,63,0.00,CLR,,0.04,WeatherDisplay:10.37,2013-01-26 22:36:00,
2013-01-26 17:41:00,37.2,26.2,30.20,SW,225,1.6,1.6,64,0.00,CLR,,0.04,WeatherDisplay:10.37,2013-01-26 22:41:00,
2013-01-26 17:46:00,36.1,25.1,30.20,SW,225,1.2,1.2,64,0.00,CLR,,0.04,WeatherDisplay:10.37,2013-01-26 22:46:00,
2013-01-26 17:51:00,35.1,24.1,30.23,SW,225,2.4,2.4,64,0.00,CLR,,0.04,WeatherDisplay:10.37,2013-01-26 22:51:00,
2013-01-26 17:56:00,34.5,23.6,30.23,SW,225,3.5,3.5,64,0.00,CLR,,0.04,WeatherDisplay:10.37,2013-01-26 22:56:00,
2013-01-26 18:01:00,34.2,23.2,30.23,SW,225,2.3,2.3,64,0.00,CLR,,0.04,WeatherDisplay:10.37,2013-01-26 23:01:00,
2013-01-26 18:06:00,33.6,23.1,30.23,SW,225,2.3,2.3,65,0.00,CLR,,0.04,WeatherDisplay:10.37,2013-01-26 23:06:00,
2013-01-26 18:10:00,43.5,43.5,30.08,North,2,3.0,3.0,100,-0.33,CL,CL,0.00,WeatherDisplay:10.37,2013-01-26 23:10:00,
2013-01-26 18:11:00,33.4,22.9,30.23,SW,225,1.2,1.2,65,0.00,CLR,,0.04,WeatherDisplay:10.37,2013-01-26 23:11:00,
2013-01-26 18:16:00,33.1,22.6,30.23,SW,225,0.0,0.0,65,0.00,CLR,,0.04,WeatherDisplay:10.37,2013-01-26 23:16:00,
2013-01-26 18:21:00,32.5,22.1,30.23,SW,225,0.0,0.0,65,0.00,CLR,,0.04,WeatherDisplay:10.37,2013-01-26 23:21:00,
2013-01-26 18:26:00,32.0,21.6,30.23,SW,225,0.0,0.0,65,0.00,CLR,,0.04,WeatherDisplay:10.37,2013-01-26 23:26:00,
2013-01-26 18:31:00,31.6,21.2,30.23,SW,225,0.0,0.0,65,0.00,CLR,,0.04,WeatherDisplay:10.37,2013-01-26 23:31:00,
2013-01-26 18:36:00,31.5,21.0,30.23,SW,225,0.0,0.0,65,0.00,CLR,,0.04,WeatherDisplay:10.37,2013-01-26 23:36:00,
2013-01-26 18:41:00,31.1,20.7,30.23,SW,225,0.0,0.0,65,0.00,CLR,,0.04,WeatherDisplay:10.37,2013-01-26 23:41:00,
2013-01-26 18:46:00,30.9,20.5,30.23,SW,225,0.0,0.0,65,0.00,CLR,,0.04,WeatherDisplay:10.37,2013-01-26 23:46:00,
2013-01-26 18:51:00,30.7,20.4,30.23,SW,225,0.0,0.0,65,0.00,CLR,,0.04,WeatherDisplay:10.37,2013-01-26 23:51:00,
2013-01-26 18:56:00,30.6,20.2,30.23,NNE,22,1.2,1.2,65,0.00,CLR,,0.04,WeatherDisplay:10.37,2013-01-26 23:56:00,
2013-01-26 19:01:00,30.2,19.8,30.23,NNE,22,2.0,2.0,65,0.00,CLR,,0.04,WeatherDisplay:10.37,2013-01-27 00:01:00,
2013-01-26 19:06:00,30.0,19.7,30.23,NE,45,2.3,2.3,65,0.00,CLR,,0.04,WeatherDisplay:10.37,2013-01-27 00:06:00,
2013-01-26 19:10:00,43.5,43.5,30.05,North,4,2.0,5.0,100,0.00,CL,CL,0.00,WeatherDisplay:10.37,2013-01-27 00:10:00,
2013-01-26 19:11:00,29.7,19.3,30.23,NE,45,1.6,0.0,65,0.00,CLR,,0.04,WeatherDisplay:10.37,2013-01-27 00:11:00,
2013-01-26 19:16:00,29.5,19.2,30.23,NE,45,1.2,1.2,65,0.00,CLR,,0.04,WeatherDisplay:10.37,2013-01-27 00:16:00,
2013-01-26 19:21:00,29.5,19.2,30.26,NE,45,0.0,0.0,65,0.00,CLR,,0.04,WeatherDisplay:10.37,2013-01-27 00:21:00,
2013-01-26 19:26:00,29.3,19.0,30.26,NE,45,0.0,0.0,65,0.00,CLR,,0.04,WeatherDisplay:10.37,2013-01-27 00:26:00,
2013-01-26 19:31:00,29.1,18.8,30.26,NE,45,0.0,0.0,65,0.00,CLR,,0.04,WeatherDisplay:10.37,2013-01-27 00:31:00,
2013-01-26 19:36:00,28.9,18.6,30.23,NE,45,1.2,0.0,65,0.00,CLR,,0.04,WeatherDisplay:10.37,2013-01-27 00:36:00,
2013-01-26 19:41:00,28.9,18.6,30.23,NE,45,1.2,0.0,65,0.00,CLR,,0.04,WeatherDisplay:10.37,2013-01-27 00:41:00,
2013-01-26 19:46:00,28.9,18.6,30.23,NE,45,1.2,1.2,65,0.00,CLR,,0.04,WeatherDisplay:10.37,2013-01-27 00:46:00,
2013-01-26 19:51:00,28.8,18.5,30.23,NE,45,1.6,1.6,65,0.00,CLR,,0.04,WeatherDisplay:10.37,2013-01-27 00:51:00,
2013-01-26 19:56:00,28.6,18.3,30.23,NE,45,0.0,0.0,65,0.00,CLR,,0.04,WeatherDisplay:10.37,2013-01-27 00:56:00,
2013-01-26 20:01:00,28.6,18.3,30.23,NE,45,1.2,1.2,65,0.00,CLR,,0.04,WeatherDisplay:10.37,2013-01-27 01:01:00,
2013-01-26 20:06:00,28.4,18.1,30.23,NE,45,2.0,2.0,65,0.00,CLR,,0.04,WeatherDisplay:10.37,2013-01-27 01:06:00,
2013-01-26 20:10:00,43.5,43.5,30.05,North,2,5.0,5.0,100,0.00,CL,CL,0.00,WeatherDisplay:10.37,2013-01-27 01:10:00,
2013-01-26 20:11:00,28.0,17.8,30.23,NNE,22,2.4,2.4,65,0.00,CLR,,0.04,WeatherDisplay:10.37,2013-01-27 01:11:00,
2013-01-26 20:16:00,27.9,18.7,30.23,NNE,22,2.4,2.4,68,0.00,CLR,,0.04,WeatherDisplay:10.37,2013-01-27 01:16:00,
2013-01-26 20:21:00,27.9,19.3,30.26,NNE,22,2.3,2.3,70,0.00,CLR,,0.04,WeatherDisplay:10.37,2013-01-27 01:21:00,
2013-01-26 20:26:00,27.9,18.7,30.26,NNE,22,1.2,1.2,68,0.00,CLR,,0.04,WeatherDisplay:10.37,2013-01-27 01:26:00,
2013-01-26 20:31:00,27.9,18.7,30.26,NNE,22,1.2,1.2,68,0.00,CLR,,0.04,WeatherDisplay:10.37,2013-01-27 01:31:00,
2013-01-26 20:36:00,27.9,18.7,30.26,NNE,22,2.3,2.3,68,0.00,CLR,,0.04,WeatherDisplay:10.37,2013-01-27 01:36:00,
2013-01-26 20:41:00,27.9,18.7,30.26,NNE,22,0.0,0.0,68,0.00,CLR,,0.04,WeatherDisplay:10.37,2013-01-27 01:41:00,
2013-01-26 20:46:00,27.7,18.5,30.26,NNE,22,0.0,0.0,68,0.00,CLR,,0.04,WeatherDisplay:10.37,2013-01-27 01:46:00,
2013-01-26 20:51:00,27.7,18.5,30.26,NNE,22,0.0,0.0,68,0.00,CLR,,0.04,WeatherDisplay:10.37,2013-01-27 01:51:00,
2013-01-26 20:56:00,27.5,18.3,30.26,NNE,22,0.0,0.0,68,0.00,CLR,,0.04,WeatherDisplay:10.37,2013-01-27 01:56:00,
2013-01-26 21:01:00,27.5,18.3,30.26,NNE,22,1.4,1.4,68,0.00,CLR,,0.04,WeatherDisplay:10.37,2013-01-27 02:01:00,
2013-01-26 21:06:00,27.5,19.0,30.26,NNE,22,2.4,2.4,70,0.00,CLR,,0.04,WeatherDisplay:10.37,2013-01-27 02:06:00,
2013-01-26 21:10:00,43.3,43.3,30.02,North,1,6.0,12.0,100,0.00,CL,CL,0.00,WeatherDisplay:10.37,2013-01-27 02:10:00,
2013-01-26 21:11:00,27.3,18.8,30.26,NE,45,2.3,2.3,70,0.00,CLR,,0.04,WeatherDisplay:10.37,2013-01-27 02:11:00,
2013-01-26 21:16:00,27.1,18.6,30.26,NE,45,2.3,2.3,70,0.00,CLR,,0.04,WeatherDisplay:10.37,2013-01-27 02:16:00,
2013-01-26 21:21:00,26.8,18.3,30.26,NE,45,2.3,2.3,70,0.00,CLR,,0.04,WeatherDisplay:10.37,2013-01-27 02:21:00,
2013-01-26 21:26:00,26.6,18.5,30.26,NE,45,2.0,2.0,71,0.00,CLR,,0.04,WeatherDisplay:10.37,2013-01-27 02:26:00,
2013-01-26 21:31:00,26.6,19.1,30.26,NE,45,2.3,2.3,73,0.00,CLR,,0.04,WeatherDisplay:10.37,2013-01-27 02:31:00,
2013-01-26 21:36:00,26.6,19.1,30.26,NE,45,1.2,1.2,73,0.00,CLR,,0.04,WeatherDisplay:10.37,2013-01-27 02:36:00,
2013-01-26 21:41:00,26.6,19.1,30.26,NE,45,2.0,2.0,73,0.00,CLR,,0.04,WeatherDisplay:10.37,2013-01-27 02:41:00,
2013-01-26 21:46:00,26.6,19.1,30.26,NE,45,1.2,1.2,73,0.00,CLR,,0.04,WeatherDisplay:10.37,2013-01-27 02:46:00,
2013-01-26 21:53:00,26.8,18.3,30.23,NE,45,1.4,1.4,70,0.00,CLR,,0.04,WeatherDisplay:10.37,2013-01-27 02:53:00,
2013-01-26 21:58:00,26.8,18.3,30.23,NE,45,1.2,1.4,70,0.00,CLR,,0.04,WeatherDisplay:10.37,2013-01-27 02:58:00,
2013-01-26 22:03:00,26.6,19.1,30.23,NE,45,2.3,2.3,73,0.00,CLR,,0.04,WeatherDisplay:10.37,2013-01-27 03:03:00,
2013-01-26 22:07:00,43.0,30.0,29.99,North,0,5.0,5.0,60,0.00,CL,CL,0.00,WeatherDisplay:10.37,2013-01-27 03:07:00,
2013-01-26 22:08:00,26.4,18.9,30.23,NE,45,1.6,1.6,73,0.00,CLR,,0.04,WeatherDisplay:10.37,2013-01-27 03:08:00,
2013-01-26 22:10:00,43.0,30.0,30.02,North,2,2.0,2.0,60,0.00,CL,CL,0.00,WeatherDisplay:10.37,2013-01-27 03:10:00,
2013-01-26 22:14:00,26.2,18.8,30.23,NNE,22,1.2,0.0,73,0.00,CLR,,0.04,WeatherDisplay:10.37,2013-01-27 03:14:00,
2013-01-26 22:19:00,26.4,18.9,30.23,NNE,22,0.0,0.0,73,0.00,CLR,,0.04,WeatherDisplay:10.37,2013-01-27 03:19:00,
2013-01-26 22:24:00,26.4,18.3,30.23,NE,45,1.2,1.2,71,0.00,CLR,,0.04,WeatherDisplay:10.37,2013-01-27 03:24:00,
2013-01-26 22:29:00,26.2,17.1,30.23,NE,45,0.0,0.0,68,0.00,CLR,,0.04,WeatherDisplay:10.37,2013-01-27 03:29:00,
2013-01-26 22:34:00,26.1,16.9,30.26,NE,45,0.0,0.0,68,0.00,CLR,,0.04,WeatherDisplay:10.37,2013-01-27 03:34:00,
2013-01-26 22:39:00,26.4,17.3,30.26,NE,45,0.0,0.0,68,0.00,CLR,,0.04,WeatherDisplay:10.37,2013-01-27 03:39:00,
2013-01-26 22:44:00,26.1,16.9,30.26,NE,45,0.0,0.0,68,0.00,CLR,,0.04,WeatherDisplay:10.37,2013-01-27 03:44:00,
2013-01-26 22:49:00,25.9,16.8,30.23,NE,45,0.0,0.0,68,0.00,CLR,,0.04,WeatherDisplay:10.37,2013-01-27 03:49:00,
2013-01-26 22:54:00,26.1,16.9,30.23,NE,45,1.2,1.2,68,0.00,CLR,,0.04,WeatherDisplay:10.37,2013-01-27 03:54:00,
2013-01-26 22:59:00,26.1,16.9,30.23,NE,45,0.0,0.0,68,0.00,CLR,,0.04,WeatherDisplay:10.37,2013-01-27 03:59:00,
2013-01-26 23:04:00,25.9,16.8,30.26,NE,45,2.3,2.3,68,0.00,RA,,0.00,WeatherDisplay:10.37,2013-01-27 04:04:00,
2013-01-26 23:09:00,25.5,17.4,30.26,NE,45,2.3,2.3,71,0.00,RA,,0.00,WeatherDisplay:10.37,2013-01-27 04:09:00,
2013-01-26 23:10:00,43.3,27.8,30.02,NNE,14,3.0,3.0,54,0.00,CL,CL,0.00,WeatherDisplay:10.37,2013-01-27 04:10:00,
2013-01-26 23:14:00,26.1,17.9,30.26,NE,45,2.3,2.3,71,0.00,FEW,,0.00,WeatherDisplay:10.37,2013-01-27 04:14:00,
2013-01-26 23:19:00,26.1,16.9,30.26,NE,45,1.6,1.6,68,0.00,FEW,,0.00,WeatherDisplay:10.37,2013-01-27 04:19:00,
2013-01-26 23:24:00,26.4,17.3,30.26,NE,45,1.2,1.2,68,0.00,FEW,,0.00,WeatherDisplay:10.37,2013-01-27 04:24:00,
2013-01-26 23:29:00,26.2,17.1,30.26,NE,45,0.0,0.0,68,0.00,FEW,,0.00,WeatherDisplay:10.37,2013-01-27 04:29:00,
2013-01-26 23:34:00,26.1,16.9,30.26,NE,45,0.0,0.0,68,0.00,FEW,,0.00,WeatherDisplay:10.37,2013-01-27 04:34:00,
2013-01-26 23:39:00,25.9,16.8,30.26,NE,45,0.0,0.0,68,0.00,FEW,,0.00,WeatherDisplay:10.37,2013-01-27 04:39:00,
2013-01-26 23:44:00,25.7,16.6,30.26,NE,45,0.0,0.0,68,0.00,FEW,,0.00,WeatherDisplay:10.37,2013-01-27 04:44:00,
2013-01-26 23:49:00,25.5,15.7,30.26,NE,45,0.0,0.0,66,0.00,FEW,,0.00,WeatherDisplay:10.37,2013-01-27 04:49:00,
2013-01-26 23:54:00,25.5,16.4,30.26,NNE,22,1.6,1.6,68,0.00,FEW,,0.00,WeatherDisplay:10.37,2013-01-27 04:54:00,
2013-01-26 23:59:00,25.7,16.6,30.26,NE,45,1.2,0.0,68,0.00,FEW,,0.00,WeatherDisplay:10.37,2013-01-27 04:59:00,